Regional Weather Roundup
Issued by NWS Charleston, SC

Current Version | Previous Version | Graphics & Text | Print | Product List | Glossary On
Versions: 1 2 3 4 5 6 7 8 9 10 11 12 13 14 15 16 17 18 19 20 21 22 23 24 25 26 27 28 29 30 31 32 33 34 35 36 37 38 39 40 41 42 43 44 45 46 47 48 49 50
000
ASUS42 KCHS 011527
RWRCHS

REGIONAL WEATHER ROUNDUP
NATIONAL WEATHER SERVICE CHARLESTON SC
1100 AM EDT TUE SEP 01 2015

NOTE: "FAIR" INDICATES FEW OR NO CLOUDS BELOW 12,000 FEET WITH NO
SIGNIFICANT WEATHER AND/OR OBSTRUCTIONS TO VISIBILITY.

NOT ALL STATIONS ARE QUALITY CONTROLLED BY THE NATIONAL
WEATHER SERVICE. USE DATA WITH CAUTION...ESPECIALLY
DEWPOINT OBSERVATIONS.

SCZ027-030-031-034>040-042>050-011600-
...SOUTHEAST SOUTH CAROLINA...

CITY           SKY/WX    TMP DP  RH WIND       PRES   REMARKS
N CHARLESTON   MOSUNNY   85  71  63 VRB5      30.12S HX  90
WATERFRONT PRK   N/A     83  73  71 N6        30.10S
MOUNT PLEASANT FAIR      84  73  70 N3        30.11F HX  91
JOHNS ISLAND   FAIR      84  73  70 CALM      30.12S HX  91
PINOPOLIS        N/A     82  73  74 N5        30.04F
MONCKS CORNER  FAIR      84  70  61 NE6       30.12S
SUMMERVILLE    FAIR      84  72  65 N6        30.13S
BEAUFORT MCAS  MOSUNNY   82  73  74 N6        30.12S
BEAUFORT ARPT  FAIR      82  73  74 CALM      30.12R
HILTON HEAD IS MOSUNNY   81  72  74 N7        30.14R
WALTERBORO     MOSUNNY   86  70  58 CALM      30.13S HX  90
ALLENDALE      FAIR      82  72  69 CALM      30.12S

...SOUTHERN MIDLANDS AND PEE DEE...

CITY           SKY/WX    TMP DP  RH WIND       PRES   REMARKS
GEORGETOWN     NOT AVBL
KINGSTREE      NOT AVBL
ORANGEBURG     MOSUNNY   85  68  56 NW6       30.13F
BARNWELL       FAIR      82  72  69 N3        30.13F
AIKEN          FAIR      81  64  57 W3        30.17F
MANNING        FAIR      82  68  61 NW5       30.12F
COLUMBIA       MOSUNNY   85  69  58 CALM      30.13S
SUMTER         SUNNY     85  68  58 NW5       30.11F
FLORENCE       SUNNY     84  71  65 CALM      30.13S
MYRTLE BEACH   SUNNY     82  70  65 VRB5      30.14S
N MYRTLE BEACH SUNNY     82  72  71 VRB5      30.12S

$$

GAZ063-065-086>088-099>101-113>116-118-119-134>141-150-011600-
...SOUTHEAST GEORGIA...

CITY           SKY/WX    TMP DP  RH WIND       PRES   REMARKS
SAVANNAH ARPT  PTSUNNY   83  73  72 VRB3      30.12S
HUNTER AAF     PTSUNNY   82  77  84 VRB5      30.10R HX  90
FORT STEWART   CLOUDY    81  73  76 CALM      30.10R
STATESBORO     MOSUNNY   82  74  77 N5        30.13R
SYLVANIA       MOSUNNY   85  75  71 CALM      30.14R HX  94
CLAXTON        NOT AVBL

...CSRA...CENTRAL AND FAR SOUTHEAST GEORGIA...

CITY           SKY/WX    TMP DP  RH WIND       PRES   REMARKS
THOMSON        MOSUNNY   83  73  72 NW3       30.19S
AUGUSTA-BUSH   SUNNY     83  70  64 N7        30.12F
AUGUSTA-DANIEL PTSUNNY   83  71  67 VRB3      30.15F
SWAINSBORO     FAIR      84  66  54 CALM      30.14S
VIDALIA        PTSUNNY   84  72  65 CALM      30.13S
EASTMAN        FAIR      85  73  67 N5        30.15S HX  91
HAZLEHURST     FAIR      87  72  61 N6        30.11F HX  94
ALMA           MOSUNNY   82  76  81 NE6       30.12R
WAYCROSS       CLOUDY    84  80  89 SE5       30.11S HX  98
JESUP          CLOUDY    84  79  84 E7        30.12S HX  96
BAXLEY         FAIR      84  77  79 E6        30.11F HX  94
BRUNSWICK      PTSUNNY   82  77  83 NE6       30.11S HX  91
SAINT SIMONS   TSTM      75  75 100 NE6       30.11R VSB 1/2

$$

SCZ027-028-034-036>038-045-046-048>050-GAZ119-141-011600-
...LAKE AND SUPPLEMENTAL COASTAL OBSERVATIONS...

STATION/POSITION TIME  TEMP    WIND        PRES    WAVE   SWELL
                       AIR SEA DIR/SP/G            HT/PER HT/PER/DIR
                 (UTC) (F)     (DEG/KT/KT) (MB)    (FT/S) (FT/S/D)
UPR LAKE MARION  NOT AVBL
WINYAH BAY       1400   79     340/  4     1019.0S
LAKE MURRAY      1400   80     270/  2/  2 1020.0S
ACE BASIN NERRS  NOT AVBL
FORT PULASKI     1500   80 83   10/  7/  9 1020.3R
SAPELO ISLAND    1500   81      30/  6     1020.0R

$$

ANZ835-935-AMZ111-154-330-350-352-354-370-450-454-472-011600-
...C-MAN AND BUOY OBSERVATIONS...

STATION/POSITION TIME  TEMP    WIND        PRES    WAVE   SWELL
                       AIR SEA DIR/SP/G            HT/PER HT/PER/DIR
                 (UTC) (F)     (DEG/KT/KT) (MB)    (FT/S) (FT/S/D)
BUOY 41004       1450   81 83   10/  8/ 10 1019.3R   2/ 8   2/ 8
BUOY 41008       1450   81 84  140/  4/  8 1019.6R   2/ 8   2/100/ 8
FOLLY BEACH CMAN 1500   81      20/  4/  5 1020.0F
CAPERS NEARSHORE 1408   80      10/  6/  8 1020.1R
FRIPP NEARSHORE  1400   80      20/ 10/ 12 1019.4R


STATION/POSITION TIME  TEMP    WIND        PRES    WAVE   SWELL
                       AIR SEA DIR/SP/G            HT/PER HT/PER/DIR
                 (UTC) (F)     (DEG/KT/KT) (MB)    (FT/S) (FT/S/D)
5E ST. MARYS GA  1421      85                N/A     2/ 8
FRYING PAN BUOY  1450   79 81  320/ 12/ 14 1020.1R   2/ 9   2/110/ 9
BUOY 41025       1450   79 84  350/  8/ 10 1018.8R   3/ 6   3/180/ 6
CAPE LOOKOUT NC  1500   79     280/  6/  7 1019.2R
BUOY 41002       1450   84 84  250/ 10/ 12 1019.6R   3/ 6   2/210/ 6
BUOY 41010       1420   85 86  180/  4/  4 1020.0R
ST AUGUSTINE FL  1500   80 83  150/  7/  8 1019.9R


$$


USA.gov is the U.S. government's official web portal to all federal, state and local government web resources and services.